Other Surface Observations
Issued by NWS Charleston, SC

Home | Current Version | Previous Version | Text Only | Print | Product List | Glossary On
Versions: 1 2 3 4 5 6 7 8 9 10 11 12 13 14 15 16 17 18 19 20 21 22 23 24 25 26 27 28 29 30 31 32 33 34 35 36 37 38 39 40 41 42 43 44 45 46 47 48 49 50
000
SXUS52 KCHS 202040
OSOCHS

MARINE OBSERVATIONS
NATIONAL WEATHER SERVICE CHARLESTON SC
400 PM EDT WED SEP 20 2017

...DOWNTOWN CHARLESTON AND HARBOR...

CITY           SKY/WX    TMP DP  RH WIND       PRES   REMARKS
WATERFRONT PRK   N/A     84  73  69 S8        29.82F HX  90

...LAKE MOULTRIE...

CITY           SKY/WX    TMP DP  RH WIND       PRES   REMARKS
PINOPOLIS        N/A     84  72  65 VRB3      29.91F

...LAKE AND SUPPLEMENTAL COASTAL OBSERVATIONS...

STATION/POSITION TIME  TEMP    WIND        PRES    WAVE   SWELL
                       AIR SEA DIR/SP/G            HT/PER HT/PER/DIR
                 (UTC) (F)     (DEG/KT/KT) (MB)    (FT/S) (FT/S/D)
FORT PULASKI     2000   83 79  160/  5/  8 1015.4
SAPELO ISLAND    2000   89        CALM     1015.0
WINYAH BAY       1930   83     130/  7     1015.0S
LAKE MURRAY      2020   83      30/  5/  8 1014.2
ACE BASIN NERRS  1945   88     160/  2     1015.0F


...C-MAN AND BUOY OBSERVATIONS...

STATION/POSITION TIME  TEMP    WIND        PRES    WAVE   SWELL
                       AIR SEA DIR/SP/G            HT/PER HT/PER/DIR
                 (UTC) (F)     (DEG/KT/KT) (MB)    (FT/S) (FT/S/D)
BUOY 41004       2020   81 82  210/  4/  6 1015.0
BUOY 41008       1950   81 82  150/ 10/ 12 1015.2F   2/11   2/ 60/11
FOLLY BEACH CMAN 2000   82     190/  9/ 11 1015.7F
CAPERS NS BUOY   2008   80 81  220/ 10/ 14 1014.8F
FRIPP NS BUOY    2008   82     180/  8/ 10 1022.5F
5E ST. MARYS GA  2000      85                N/A     2/12   2/ 80/12


STATION/POSITION TIME  TEMP    WIND        PRES    WAVE   SWELL
                       AIR SEA DIR/SP/G            HT/PER HT/PER/DIR
                 (UTC) (F)     (DEG/KT/KT) (MB)    (FT/S) (FT/S/D)
FRYING PAN BUOY  2020   80 82  240/  6/  8 1014.7
BUOY 41025       1950   78 76  260/  6/  8 1013.8F   5/11   5/ 80/11
CAPE LOOKOUT NC  2000   81     220/  9/ 12 1013.7F
BUOY 41002       1950   80 81  300/  6/  8 1015.5F   7/12   7/ 20/12
BUOY 41010       2020      85   20/  6/ 10 1015.5
ST AUGUSTINE FL  2000   82 84  110/  8/  9 1016.2F

$$




USA.gov is the U.S. government's official web portal to all federal, state and local government web resources and services.